[[{"header":{"parameterUnit":"m.s-1","parameterCategory":1,"la1":30.2991,"la2":30.254,"lo1":-89.0895,"lo2":-89.0444,"dy":0.0017,"dx":0.0017,"nx":28,"ny":28,"refTime":"2024-06-18T21:00:00:Z","depth":0,"parameterNumber":2,"parameterNumberName":"U-component_of_WINDS"},"data":[0,0,0,0,0,0,0,0,0,0,0,0,0,0,0,0,0,0,0,0,0,0,0,0,0,0,0,0,0,0,0,0,0,0,0,0,0,0,0,0,0,0,0,0,0,0,0,0,0,0,0,0,0,0,0,0,0,0,-9.8885,-9.8885,0,-9.8849,-9.8849,-9.8848,-9.8606,-9.8601,-9.8595,-9.8589,-9.8554,-9.8558,-9.8563,0,0,0,0,0,0,0,0,0,0,0,0,0,-9.8747,-9.8751,-9.8885,-9.8885,-9.8884,-9.8849,-9.8849,-9.8848,-9.8607,-9.86,-9.8593,-9.8586,-9.8552,-9.8558,-9.8563,0,0,0,0,0,0,0,0,0,0,0,0,0,-9.8769,-9.8752,-9.8885,-9.876,-9.8748,-9.8849,-9.8849,-9.8848,-9.8609,-9.86,-9.8591,-9.8583,-9.8551,-9.8557,-9.8564,-9.8783,0,0,-9.8585,-9.8588,0,0,0,0,0,0,0,0,-9.8768,-9.8774,-9.8779,-9.8769,-9.8756,-9.8723,-9.8787,-9.8826,-9.8611,-9.8662,-9.8589,-9.8579,-9.8618,-9.8618,-9.8631,-9.8781,-9.878,-9.8585,-9.859,-9.8592,-9.8594,0,0,0,0,0,0,0,-9.8767,-9.8775,-9.8871,-9.8779,-9.8765,-9.8706,-9.8699,-9.8793,-9.869,-9.8657,-9.8639,-9.8638,-9.8609,-9.8625,-9.8628,-9.8779,-9.8585,-9.8591,-9.8596,-9.8598,-9.9107,-9.9116,0,0,0,0,0,0,-9.8783,-9.8775,-9.8872,-9.887,-9.874,-9.8716,-9.8708,-9.8743,-9.8688,-9.8671,-9.8646,-9.8627,-9.8618,-9.8621,-9.8626,-9.8878,-9.8592,-9.8599,-9.8603,-9.9097,-9.9109,-9.9119,0,0,0,0,0,0,-9.8781,-9.8794,-9.8873,-9.8818,-9.8823,-9.8727,-9.8768,-9.8747,-9.8761,-9.868,-9.866,-9.868,-9.8611,-9.8617,-9.8745,-9.8873,-9.8602,-9.8608,-9.9086,-9.9101,-9.9114,-9.9385,0,0,0,0,0,0,-9.8778,-9.8794,-9.8876,-9.8821,-9.8827,-9.8994,-9.8776,-9.8752,-9.8774,-9.8749,-9.8707,-9.8692,-9.8604,-9.8737,-9.8752,-9.8878,-9.8613,-9.9074,-9.9093,-9.9109,-9.9364,-9.9406,-9.9443,0,0,0,0,0,-9.8774,-9.8955,-9.8882,-9.8895,-9.8927,-9.9002,-9.9005,-9.89,-9.8785,-9.8867,-9.8814,-9.8693,-9.8857,-9.8752,-9.8767,-9.8897,-9.9066,-9.9088,-9.9108,-9.9346,-9.9398,-9.9442,0,0,0,0,0,0,-9.9028,-9.8945,-9.8863,-9.9032,-9.9026,-9.8961,-9.906,-9.8959,-9.8985,-9.8961,-9.8831,-9.8823,-9.8972,-9.8947,-9.8831,-9.9106,-9.8941,-9.8966,-9.9116,-9.9165,-9.9204,-9.9206,-9.8619,0,0,0,0,0,-9.9104,-9.917,-9.9094,-9.925,-9.9251,-9.9158,-9.9186,-9.9106,-9.9094,-9.909,-9.9047,-9.9041,-9.9091,-9.9127,-9.9168,-9.936,-9.9347,-9.9457,-9.9496,-9.9529,-9.9552,-9.9651,-9.9699,-9.9189,-9.9188,-9.9188,0,0,-9.926,-9.9223,-9.9274,-9.93,-9.9286,-9.9358,-9.9157,-9.9242,-9.9294,-9.9103,-9.9222,-9.9191,-9.9175,-9.9337,-9.9405,-9.932,-9.969,-9.9556,-9.9582,-9.9588,-9.9678,-9.9726,-9.9769,-9.9203,-9.92,-9.9198,0,0,-9.9583,-9.9562,-9.9689,-9.9679,-9.966,-9.9596,-9.9627,-9.9578,-9.9549,-9.9666,-9.9524,-9.9585,-9.9674,-9.9669,-9.9678,-10.0,-9.9889,-10.0017,-10.0223,-10.0321,-10.0361,-10.0396,-10.051,-10.0553,-10.0041,-10.0042,-10.0042,0,-9.978,-9.9883,-9.9767,-9.9862,-9.9878,-9.9708,-9.9836,-9.9832,-9.9828,-9.9843,-9.9748,-9.9856,-9.9834,-9.9991,-10.007,-10.0083,-10.0115,-10.0021,-10.0365,-10.0398,-10.0429,-10.0537,-10.058,-10.0057,-10.0055,-10.0054,-10.0052,0,-10.0126,-10.02,-10.0305,-10.0305,-10.0332,-10.0444,-10.0345,-10.0387,-10.0306,-10.0253,-10.0374,-10.0342,-10.0373,-10.0405,-10.0326,-10.0552,-10.05,-10.0387,-10.0218,-10.0496,-10.0594,-10.0634,-10.008,-10.0074,-10.0069,-10.0065,0,0,-10.0607,-10.0541,-10.0582,-10.0579,-10.0546,-10.0601,-10.0705,-10.0735,-10.0773,-10.0777,-10.086,-10.094,-10.0835,-10.0846,-10.0765,-10.0852,-10.1108,-10.0728,-10.0725,-10.0799,-10.1354,-10.1439,-10.1488,-10.1035,-10.1043,-10.1049,-10.1355,0,-10.0915,-10.1087,-10.0987,-10.1173,-10.124,-10.108,-10.117,-10.116,-10.1114,-10.1164,-10.1112,-10.117,-10.1028,-10.1033,-10.1112,-10.1061,-10.1218,-10.1037,-10.1112,-10.1116,-10.1119,-10.154,-10.1629,-10.192,-10.1393,-10.14,-10.1404,0,-10.1298,-10.1317,-10.1511,-10.1464,-10.1488,-10.1571,-10.159,-10.164,-10.1626,-10.1586,-10.1599,-10.1497,-10.1595,-10.143,-10.1565,-10.1444,-10.1469,-10.1449,-10.1457,-10.1459,-10.1276,-10.1552,-10.201,-10.2054,-10.1464,-10.1459,-10.1455,0,-10.1628,-10.1703,-10.1827,-10.183,-10.178,-10.1842,-10.1823,-10.18,-10.1825,-10.1843,-10.1857,-10.1888,-10.1904,-10.193,-10.1839,-10.1727,-10.1986,-10.1813,-10.1955,-10.1958,-10.2016,-10.2013,-10.2484,-10.2035,-10.2034,-10.2033,-10.2033,0,-10.1983,-10.2107,-10.1975,-10.2052,-10.2187,-10.207,-10.2207,-10.2172,-10.2153,-10.2221,-10.2085,-10.2152,-10.2028,-10.2083,-10.2013,-10.2135,-10.2144,-10.2114,-10.2094,-10.2126,-10.213,-10.2139,-10.2116,-10.2045,-10.2042,-10.204,-10.2038,0,-10.2374,-10.229,-10.2415,-10.2357,-10.2345,-10.2448,-10.2397,-10.2466,-10.2411,-10.2498,-10.2512,-10.2426,-10.2483,-10.2395,-10.2443,-10.2395,-10.2564,-10.2513,-10.2569,-10.2553,-10.27,-10.2688,-10.3192,-10.3252,-10.2767,-10.2772,-10.2776,0,-10.2605,-10.2696,-10.2648,-10.2683,-10.2672,-10.2731,-10.2755,-10.2645,-10.2676,-10.2667,-10.2737,-10.2783,-10.2813,-10.2912,-10.2854,-10.289,-10.2839,-10.3013,-10.2843,-10.2872,-10.284,-10.2835,-10.2844,-10.3048,-10.3054,-10.3058,-10.3062,0,-10.3023,-10.2977,-10.3017,-10.3043,-10.3076,-10.3092,-10.3097,-10.3134,-10.3018,-10.306,-10.3116,-10.314,-10.3188,-10.3235,-10.3257,-10.3238,-10.3133,-10.3117,-10.3151,-10.3184,-10.3212,-10.3198,-10.2663,-10.3105,-10.3101,-10.3098,-10.3095,-10.3094,-10.334,-10.3414,-10.3391,-10.344,-10.3432,-10.3441,-10.3503,-10.3455,-10.3499,-10.3529,-10.3462,-10.3535,-10.3518,-10.3536,-10.3529,-10.3585,-10.3509,-10.3559,-10.3572,-10.3586,-10.3608,-10.3205,-10.3589,-10.3588,-10.3586,-10.3585,-10.3584,0,-10.375,-10.3728,-10.3774,-10.3786,-10.3825,-10.3721,-10.3721,-10.3761,-10.3827,-10.382,-10.3852,-10.3918,-10.3963,-10.3909,-10.3944,-10.4,-10.3952,-10.4013,-10.4007,-10.4004,-10.3675,-10.3641,-10.4051,-10.4051,-10.4051,-10.4051,-10.4051,-10.405,-10.3968,-10.4087,-10.404,-10.4154,-10.413,-10.42,-10.4209,-10.4217,-10.421,-10.4289,-10.4325,-10.4289,-10.4264,-10.4296,-10.4334,-10.4316,-10.4336,-10.4414,-10.438,-10.4073,-10.4028,-10.3984,-10.3951,-10.4419,-10.442,-10.4704,-10.4707,-10.4709]},{"header":{"parameterUnit":"m.s-1","parameterCategory":1,"la1":30.2991,"la2":30.254,"lo1":-89.0895,"lo2":-89.0444,"dy":0.0017,"dx":0.0017,"nx":28,"ny":28,"refTime":"2024-06-18T21:00:00:Z","depth":0,"parameterNumber":3,"parameterNumberName":"V-component_of_WINDS"},"data":[0,0,0,0,0,0,0,0,0,0,0,0,0,0,0,0,0,0,0,0,0,0,0,0,0,0,0,0,0,0,0,0,0,0,0,0,0,0,0,0,0,0,0,0,0,0,0,0,0,0,0,0,0,0,0,0,0,0,-1.2259,-1.226,0,-1.2266,-1.2266,-1.2266,-1.2235,-1.2234,-1.2233,-1.2232,-1.2242,-1.2243,-1.2244,0,0,0,0,0,0,0,0,0,0,0,0,0,-1.2221,-1.2222,-1.2259,-1.226,-1.226,-1.2266,-1.2266,-1.2266,-1.2235,-1.2234,-1.2233,-1.2232,-1.2242,-1.2243,-1.2244,0,0,0,0,0,0,0,0,0,0,0,0,0,-1.2234,-1.2222,-1.2259,-1.2245,-1.2244,-1.2266,-1.2266,-1.2266,-1.2235,-1.2234,-1.2233,-1.2231,-1.2241,-1.2243,-1.2244,-1.2282,0,0,-1.225,-1.225,0,0,0,0,0,0,0,0,-1.2233,-1.2235,-1.2247,-1.2246,-1.2244,-1.2248,-1.2256,-1.2272,-1.2236,-1.2239,-1.2232,-1.2231,-1.2245,-1.2247,-1.2251,-1.2283,-1.2283,-1.225,-1.2251,-1.2251,-1.2252,0,0,0,0,0,0,0,-1.2232,-1.2235,-1.2262,-1.2247,-1.2246,-1.2238,-1.2239,-1.2259,-1.225,-1.2238,-1.2236,-1.2237,-1.2244,-1.2249,-1.2251,-1.2283,-1.225,-1.2251,-1.2252,-1.2253,-1.2345,-1.2346,0,0,0,0,0,0,-1.2233,-1.2234,-1.2262,-1.2262,-1.2235,-1.224,-1.224,-1.2249,-1.2249,-1.2248,-1.2238,-1.2236,-1.2247,-1.2249,-1.2251,-1.2294,-1.2251,-1.2253,-1.2254,-1.2343,-1.2345,-1.2347,0,0,0,0,0,0,-1.2232,-1.2236,-1.2262,-1.2248,-1.225,-1.2242,-1.2252,-1.2249,-1.2254,-1.2249,-1.2248,-1.2245,-1.2246,-1.2249,-1.2274,-1.2294,-1.2254,-1.2255,-1.2342,-1.2344,-1.2346,-1.2381,0,0,0,0,0,0,-1.2231,-1.2236,-1.225,-1.2248,-1.2251,-1.2284,-1.2253,-1.2251,-1.2257,-1.2253,-1.2255,-1.2254,-1.2245,-1.2272,-1.2276,-1.2296,-1.2257,-1.234,-1.2343,-1.2345,-1.2378,-1.2384,-1.239,0,0,0,0,0,-1.223,-1.2261,-1.2251,-1.2254,-1.2269,-1.2285,-1.2287,-1.2276,-1.2259,-1.2273,-1.2269,-1.2254,-1.2291,-1.2275,-1.2279,-1.23,-1.2338,-1.2342,-1.2345,-1.2376,-1.2383,-1.239,0,0,0,0,0,0,-1.2266,-1.226,-1.2249,-1.228,-1.2283,-1.228,-1.2297,-1.2284,-1.2293,-1.229,-1.2276,-1.2277,-1.2304,-1.2305,-1.2286,-1.2335,-1.2312,-1.2316,-1.2334,-1.2341,-1.2347,-1.2346,-1.2258,0,0,0,0,0,-1.2277,-1.2291,-1.2285,-1.2313,-1.2315,-1.2306,-1.2313,-1.2304,-1.2307,-1.2309,-1.2307,-1.2312,-1.2324,-1.2333,-1.2344,-1.2378,-1.2378,-1.2395,-1.24,-1.2405,-1.2409,-1.2425,-1.2432,-1.2357,-1.2357,-1.2357,0,0,-1.2301,-1.2299,-1.2309,-1.232,-1.2321,-1.2336,-1.2307,-1.2325,-1.2335,-1.2312,-1.2334,-1.2334,-1.2338,-1.2367,-1.238,-1.2368,-1.2429,-1.2409,-1.2413,-1.2414,-1.2429,-1.2437,-1.2443,-1.2359,-1.2359,-1.2359,0,0,-1.2351,-1.2352,-1.2374,-1.2376,-1.2378,-1.2371,-1.2377,-1.2376,-1.2374,-1.2396,-1.2378,-1.2391,-1.2414,-1.2417,-1.2421,-1.2471,-1.2457,-1.2476,-1.2505,-1.2522,-1.2528,-1.2533,-1.2549,-1.2556,-1.248,-1.248,-1.248,0,-1.2381,-1.2401,-1.2387,-1.2405,-1.241,-1.2388,-1.241,-1.2413,-1.2419,-1.2423,-1.241,-1.2436,-1.2437,-1.2466,-1.2478,-1.2483,-1.2489,-1.2475,-1.2528,-1.2533,-1.2537,-1.2553,-1.256,-1.2482,-1.2482,-1.2481,-1.2481,0,-1.2436,-1.2451,-1.2469,-1.2474,-1.2481,-1.2501,-1.249,-1.2499,-1.2489,-1.2484,-1.2507,-1.2508,-1.2518,-1.2525,-1.2516,-1.2552,-1.2545,-1.253,-1.2506,-1.2547,-1.2561,-1.2567,-1.2485,-1.2484,-1.2483,-1.2483,0,0,-1.251,-1.2506,-1.2512,-1.2514,-1.2514,-1.2525,-1.2544,-1.2553,-1.256,-1.2566,-1.258,-1.2599,-1.2585,-1.259,-1.2581,-1.2596,-1.2634,-1.2579,-1.2579,-1.2588,-1.2673,-1.2683,-1.2691,-1.2625,-1.2626,-1.2627,-1.2672,0,-1.2558,-1.2588,-1.2576,-1.2608,-1.2621,-1.26,-1.2616,-1.2618,-1.2614,-1.2624,-1.262,-1.2633,-1.2614,-1.2616,-1.263,-1.2626,-1.2651,-1.2623,-1.2638,-1.2639,-1.2637,-1.2698,-1.271,-1.2752,-1.2678,-1.2679,-1.268,0,-1.2618,-1.2623,-1.2656,-1.2653,-1.2658,-1.2673,-1.2679,-1.269,-1.2691,-1.2687,-1.2692,-1.268,-1.2698,-1.2675,-1.27,-1.2681,-1.2687,-1.2686,-1.2687,-1.2687,-1.2661,-1.2699,-1.2766,-1.2772,-1.2689,-1.2688,-1.2687,0,-1.2666,-1.2682,-1.2703,-1.2705,-1.2703,-1.2713,-1.2713,-1.2713,-1.2719,-1.2725,-1.2728,-1.2737,-1.2742,-1.2749,-1.2739,-1.2723,-1.2765,-1.2741,-1.2762,-1.2762,-1.2771,-1.2771,-1.2839,-1.2777,-1.2777,-1.2777,-1.2776,0,-1.272,-1.2741,-1.2725,-1.2738,-1.276,-1.2746,-1.2769,-1.2766,-1.2766,-1.2778,-1.2762,-1.2774,-1.2761,-1.2771,-1.2764,-1.2785,-1.2788,-1.2785,-1.2782,-1.2786,-1.2786,-1.2789,-1.2785,-1.2778,-1.2778,-1.2778,-1.2777,0,-1.2778,-1.2768,-1.2789,-1.2784,-1.2783,-1.28,-1.2796,-1.2808,-1.2802,-1.2818,-1.2821,-1.2812,-1.2824,-1.2815,-1.2827,-1.2822,-1.2849,-1.2844,-1.2848,-1.2846,-1.2867,-1.2865,-1.2938,-1.2947,-1.2881,-1.2881,-1.2882,0,-1.2812,-1.2827,-1.2823,-1.283,-1.283,-1.2841,-1.2846,-1.2833,-1.2839,-1.2842,-1.2853,-1.2863,-1.287,-1.289,-1.2885,-1.2894,-1.2888,-1.2913,-1.2889,-1.2891,-1.2887,-1.2885,-1.2886,-1.2918,-1.2918,-1.2919,-1.2919,0,-1.2874,-1.2868,-1.2876,-1.2882,-1.2888,-1.2893,-1.2896,-1.2902,-1.2889,-1.2897,-1.2908,-1.2913,-1.2925,-1.2935,-1.2942,-1.2942,-1.2928,-1.2927,-1.2932,-1.2935,-1.2936,-1.2934,-1.286,-1.2925,-1.2925,-1.2924,-1.2924,-1.2924,-1.292,-1.2932,-1.293,-1.294,-1.294,-1.2943,-1.2953,-1.2949,-1.2957,-1.2965,-1.2957,-1.297,-1.2971,-1.2978,-1.298,-1.299,-1.298,-1.2988,-1.2989,-1.2991,-1.2993,-1.2936,-1.2992,-1.2992,-1.2992,-1.2991,-1.2991,0,-1.298,-1.2978,-1.2986,-1.299,-1.2997,-1.2983,-1.2986,-1.2993,-1.3004,-1.3005,-1.3012,-1.3025,-1.3034,-1.303,-1.3038,-1.3047,-1.3041,-1.3049,-1.3048,-1.3048,-1.3003,-1.2997,-1.3054,-1.3054,-1.3054,-1.3054,-1.3054,-1.3054,-1.3012,-1.303,-1.3024,-1.3043,-1.3041,-1.3053,-1.3055,-1.3058,-1.3059,-1.3073,-1.308,-1.3077,-1.3076,-1.3083,-1.3091,-1.309,-1.3093,-1.3104,-1.31,-1.3058,-1.3051,-1.3045,-1.304,-1.3105,-1.3105,-1.3144,-1.3144,-1.3144]}]]